Buffalo, NY

5:58 AM EDT on March 29, 2017 (GMT -0400)
Buffalo Niagara International

Weather History for KBUF - December, 2013

Change the Weather History Date:

Thursday, December 5, 2013

  Actual Average Record
Temperature  
Mean Temperature 50 °F 34 °F  
Max Temperature 61 °F 40 °F 67 °F (1982)
Min Temperature 38 °F 27 °F -3 °F (1886)
Degree Days  
Heating Degree Days 15 32  
Month to date heating degree days 128 154  
Since 1 July heating degree days 1446 1487  
Cooling Degree Days 0 0  
Month to date cooling degree days 0 0  
Year to date cooling degree days 611 544  
Moisture  
Dew Point 42 °F    
Average Humidity 76    
Maximum Humidity 89    
Minimum Humidity 62    
Precipitation  
Precipitation T in 0.13 in 0.88 in (1977)
Month to date precipitation 0.03 0.63  
Year to date precipitation 41.12 37.22  
Snow  
Snow 0.00 in 0.60 in 9.50 in (1977)
Month to date snowfall 0.0 3.1  
Since 1 July snowfall 10.0 11.9  
Snow Depth 0.00 in    
Sea Level Pressure  
Sea Level Pressure 29.84 in    
Wind  
Wind Speed 18 mph (SW)    
Max Wind Speed 26 mph    
Max Gust Speed 40 mph    
Visibility 10 miles    
Events Rain    
T = Trace of Precipitation, MM = Missing Value Source: NWS Daily Summary

Daily Weather History Graph

Daily Weather History Graph

Search for Another Location

Airport or City:

Trip Planner

Search our weather history database for the weather conditions in past years. The results will help you decide how hot, cold, wet, or windy it might be!

Date:

Astronomy

Dec. 05, 2013 Rise Set
Actual Time 7:30 AM EST 4:40 PM EST
Civil Twilight 6:58 AM EST 5:12 PM EST
Nautical Twilight 6:23 AM EST 5:48 PM EST
Astronomical Twilight 5:48 AM EST 6:22 PM EST
Moon 9:47 AM EST (12/5) 8:01 PM EST (12/5)
Length of Visible Light 10h 13m
Length of Day
9h 09m
Waxing Crescent, 10% of the Moon is Illuminated
Dec 5
Waxing Crescent
Dec 9
First Quarter
Dec 17
Full
Dec 25
Last Quarter
Jan 1
New

Hourly Weather History & Observations

Time (EST) Temp. Windchill Dew Point Humidity Pressure Visibility Wind Dir Wind Speed Gust Speed Precip Events Conditions
12:54 AM 51.1 °F - 42.1 °F 71% 29.80 in 10.0 mi SSE 12.7 mph - N/A   Mostly Cloudy
1:54 AM 52.0 °F - 42.1 °F 69% 29.78 in 10.0 mi South 19.6 mph 27.6 mph N/A   Mostly Cloudy
2:54 AM 54.0 °F - 44.1 °F 69% 29.76 in 10.0 mi SSE 13.8 mph - 0.01 in   Mostly Cloudy
3:54 AM 57.0 °F - 46.0 °F 67% 29.75 in 10.0 mi South 21.9 mph 27.6 mph N/A   Overcast
4:54 AM 55.0 °F - 46.0 °F 72% 29.75 in 10.0 mi South 18.4 mph 26.5 mph N/A   Overcast
5:54 AM 55.9 °F - 46.9 °F 72% 29.74 in 10.0 mi South 13.8 mph - N/A   Overcast
6:54 AM 57.9 °F - 48.9 °F 72% 29.73 in 10.0 mi SSW 20.7 mph - N/A   Overcast
7:54 AM 59.0 °F - 48.9 °F 69% 29.75 in 10.0 mi SSW 21.9 mph 29.9 mph N/A   Mostly Cloudy
8:54 AM 60.1 °F - 50.0 °F 69% 29.75 in 10.0 mi SSW 19.6 mph 26.5 mph N/A   Overcast
9:54 AM 60.1 °F - 51.1 °F 72% 29.75 in 10.0 mi SSW 18.4 mph 27.6 mph N/A   Overcast
10:54 AM 61.0 °F - 52.0 °F 72% 29.76 in 10.0 mi SSW 13.8 mph - N/A   Overcast
11:54 AM 57.0 °F - 50.0 °F 77% 29.76 in 10.0 mi WSW 19.6 mph 28.8 mph N/A   Overcast
12:00 PM 57.2 °F - 50.0 °F 77% 29.76 in 9.0 mi WSW 20.7 mph 28.8 mph N/A   Overcast
12:54 PM 54.0 °F - 46.9 °F 77% 29.77 in 9.0 mi SW 18.4 mph 26.5 mph N/A   Overcast
1:54 PM 50.0 °F - 45.0 °F 83% 29.79 in 7.0 mi SW 25.3 mph 32.2 mph N/A   Overcast
2:54 PM 46.9 °F - 41.0 °F 80% 29.80 in 9.0 mi SW 21.9 mph 31.1 mph N/A   Overcast
3:54 PM 45.0 °F 36.6 °F 39.9 °F 82% 29.83 in 9.0 mi SW 21.9 mph 31.1 mph 0.00 in   Overcast
4:21 PM 44.6 °F 36.1 °F 39.2 °F 81% 29.84 in 9.0 mi WSW 21.9 mph 33.4 mph N/A   Overcast
4:54 PM 44.1 °F 35.0 °F 39.9 °F 85% 29.87 in 9.0 mi WSW 24.2 mph 34.5 mph N/A   Overcast
5:11 PM 44.6 °F 36.4 °F 39.2 °F 81% 29.87 in 9.0 mi WSW 20.7 mph 34.5 mph N/A   Overcast
5:54 PM 44.1 °F 36.8 °F 39.9 °F 85% 29.90 in 9.0 mi WSW 16.1 mph 27.6 mph N/A   Overcast
6:11 PM 44.6 °F 37.4 °F 39.2 °F 81% 29.91 in 9.0 mi WSW 16.1 mph 25.3 mph N/A   Overcast
6:54 PM 43.0 °F 35.4 °F 39.0 °F 86% 29.94 in 9.0 mi WSW 16.1 mph - N/A   Overcast
7:54 PM 43.0 °F 35.7 °F 37.9 °F 82% 29.96 in 10.0 mi WSW 15.0 mph - N/A   Overcast
8:54 PM 43.0 °F 36.8 °F 35.1 °F 74% 29.97 in 10.0 mi WSW 11.5 mph 20.7 mph N/A   Overcast
9:09 PM 42.8 °F 35.1 °F 33.8 °F 70% 29.98 in 10.0 mi West 16.1 mph 20.7 mph N/A   Overcast
9:40 PM 42.8 °F 36.6 °F 32.0 °F 66% 29.98 in 10.0 mi WSW 11.5 mph - N/A   Overcast
9:54 PM 42.1 °F 34.5 °F 30.9 °F 65% 30.00 in 10.0 mi West 15.0 mph - N/A   Overcast
10:54 PM 39.9 °F 33.4 °F 30.0 °F 68% 30.00 in 10.0 mi West 10.4 mph - 0.00 in Rain Light Rain
11:54 PM 39.0 °F 31.4 °F 30.0 °F 70% 30.04 in 10.0 mi West 12.7 mph - 0.00 in Rain Light Rain